Miscellaneous Local Product
Issued by NWS North Platte, NE

Home | Current Version | Previous Version | Text Only | Print | Product List | Glossary On
Versions: 1 2 3 4 5 6 7 8 9 10 11 12 13 14 15 16 17 18 19 20 21 22 23 24 25 26 27 28 29 30 31 32 33 34 35 36 37 38 39 40 41 42 43 44 45 46 47 48 49 50
566
AXUS43 KLBF 191310
MISLBF


WESTERN AND NORTH CENTRAL NEBRASKA HOURLY WEATHER ROUNDUP
NATIONAL WEATHER SERVICE NORTH PLATTE NE
800 AM CDT TUE SEP 19 2017

NOTE: "FAIR" INDICATES FEW OR NO CLOUDS BELOW 12,000 FEET WITH NO
SIGNIFICANT WEATHER AND/OR OBSTRUCTIONS TO VISIBILITY.

NOTE: STATIONS NOT REPORTING VARIABLES SUCH AS SKY/WEATHER OR
PRESSURE ARE PROVIDED BY RAWS AND APRS NETWORKS AND ARE NOT UNDER
NATIONAL WEATHER SERVICE QUALITY CONTROL.

...OBSERVATIONS IN AND NEAR THE EASTERN PANHANDLE OF NEBRASKA...

CITY           SKY/WX    TMP DP  RH WIND       PRES   REMARKS
PINE RIDGE     FAIR      65  55  70 S18G29    29.58F
GORDON         FAIR      62  55  79 S5        29.63F
CHADRON        FAIR      63  47  55 SW9       29.59R
ALLIANCE       FAIR      54  52  93 S8        29.65F
SIDNEY         FAIR      50  47  89 NW3       29.69R
$$

...OBSERVATIONS IN NORTHERN NEBRASKA AND FAR SOUTHERN SOUTH DAKOTA...

CITY           SKY/WX    TMP DP  RH WIND       PRES   REMARKS
WINNER         FAIR      66  60  81 S18       29.62F
VALENTINE      FAIR      64  59  83 E6        29.64F
THEDFORD       FAIR      62  60  93 SE9       29.68F
AINSWORTH      FAIR      60  60  99 S8        29.68F
O`NEILL        FOG       62  62 100 SE10      29.72S VSB 1
ORD            FAIR      60  58  92 SE7       29.71F FOG
BROKEN BOW     FAIR      60  59  96 SE6       29.70F
HALSEY           N/A     58  58  99 SE6         N/A
BUTTE            N/A     60  59  97 SE12        N/A
CHAMBERS         N/A     62  61  98 CALM        N/A
EWING            N/A     63  62  97 MISG        N/A
$$

...OBSERVATIONS IN SOUTHWEST NEBRASKA AND FAR NORTHEAST COLORADO...

CITY           SKY/WX    TMP DP  RH WIND       PRES   REMARKS
WRAY           FAIR      54  46  76 S5        29.69S
HOLYOKE        FAIR      54  50  87 S9        29.68F
IMPERIAL       FAIR      63  60  90 S10       29.68S
OGALLALA       FAIR      60  57  90 NE3       29.67F
NORTH PLATTE   FAIR      64  62  93 SE8       29.68F
MCCOOK         FAIR      66  64  93 S17       29.67F
LEXINGTON      FAIR      61  60  94 E7        29.70F FOG
STAPLETON        N/A     60  58  95 CALM        N/A
GOTHENBURG       N/A     58  55  90 CALM        N/A
$$

...OBSERVATIONS IN CENTRAL LINCOLN COUNTY AREA...

CITY           SKY/WX    TMP DP  RH WIND       PRES   REMARKS
N.P. AIRPORT   FAIR      64  62  93 SE8       29.68F
N.P. DOWNTOWN    N/A     63  61  92 CALM        N/A
N.P. SOUTHEAST   N/A     62  60  92 CALM        N/A
N.P. HILLCREST   N/A     62  60  95 E6          N/A
$$

...SOME OBSERVATIONS FROM AROUND THE REGION...

CITY           SKY/WX    TMP DP  RH WIND       PRES   REMARKS
DENVER         MOCLDY    63  21  20 S14       29.74F
LIMON            N/A    N/A N/A N/A MISG      29.79S
ASPEN          FAIR      52  20  28 VRB3      29.98R
LARAMIE        FAIR      52  20  28 SE9       29.82S
CASPER         FAIR      51  41  68 W13       29.70R
CHEYENNE       FAIR      51  30  44 W7        29.78S
SCOTTSBLUFF    FAIR      54  50  86 E7        29.65F
GRAND ISLAND   FAIR      63  63 100 SE9       29.75F
OMAHA          CLOUDY    68  65  90 SE12      29.83S FOG
SIOUX FALLS    DRZL/FOG  66  66 100 SE12      29.79F VSB 1/2
PIERRE         FAIR      61  59  93 SE13      29.58F
RAPID CITY     CLEAR     61  46  59 S9        29.55F
BISMARCK       FAIR      63  57  81 SE21G28   29.54F
KANSAS CITY    FAIR      68  67  96 SE8       29.89R
HILL CITY      FAIR      67  64  90 CALM      29.73S
WICHITA        FAIR      69  66  90 SE9       29.82F
DODGE CITY     FAIR      65  62  90 SE12      29.77S
OKLAHOMA CITY  FAIR      72  70  93 S10       29.88R
DALLAS         MOCLDY    77  74  90 S12       29.90S
AMARILLO       FAIR      65  60  84 SW14      29.90S
$$




USA.gov is the U.S. government's official web portal to all federal, state and local government web resources and services.